Find Kosmos-1323

NORAD ID: 12978 Int'l Des: 1981-116 Owner: GUKOS Country: SU operational
LEOCIRCULAR

Live Position

Loading 3D Globe...

About Kosmos-1323

Description loading...

Upcoming Passes

Passes for default location (London). Set your location on the main map for personalized predictions.

Altitude History

Loading altitude history...

Two-Line Element Set

1 12978U 81116D 26104.95074373 .00000001 00000-0 14004-3 0 9998
2 12978 73.9791 95.8084 0090341 318.1609 69.3842 12.29207171991287
Epoch: Apr 14, 2026 • Age: 11 hours

Current Status

Altitude 1496.8 km
Velocity 7.15 km/s
Sub-Earth Point -42.18°S, 84.39°E
Launch Date Nov 28, 1981
Age 44.3 years
Type other

Technical Details

Classification Payload
Mass 60.00 kg
Dry Mass 60.00 kg
Total Mass 60.00 kg
Length 0.80 m
Diameter 0.80 m
Span 0.80 m
Shape Poly
Manufacturer NPOPM
Bus Type Strela-1 11F625
Phase Status In Orbit
Owner/State GUKOS/SU

Most Searched